GEFSSE_850_meantemp_000.txt.gz
Temperature
21 19 16 16 16 15 15 15 15 15 14 14 14 13 13 13 13 13 13 13 13 13 13 13 13 13 13 14 14 13 13 13 13 13 13 13 14 14 13 12 13 13 12
21 19 16 16 16 15 15 15 15 14 14 14 13 12 12 12 12 13 13 13 13 13 13 13 13 13 13 13 13 13 13 13 13 13 12 13 13 14 13 13 12 12 12
22 19 16 16 16 16 16 15 15 14 14 14 13 12 12 12 12 12 13 12 12 12 13 13 13 13 13 13 13 13 13 13 14 13 13 13 13 13 13 12 12 11 12
21 20 17 16 16 16 16 15 15 14 14 13 13 12 12 12 13 12 12 12 12 13 13 13 13 13 14 13 13 13 14 14 14 14 13 13 13 13 13 12 11 11 12
21 20 18 17 17 16 16 15 15 14 14 13 13 12 12 13 13 13 13 12 12 13 13 13 14 14 14 14 14 14 14 14 14 14 14 14 14 13 13 12 11 11 11
21 20 20 19 17 16 16 15 15 14 14 14 13 13 13 13 13 13 13 13 13 13 13 14 14 14 14 14 14 14 14 14 14 14 14 14 14 13 13 13 12 11 11
20 19 19 19 18 17 16 15 15 15 15 14 14 13 13 13 13 14 13 13 13 13 13 13 14 14 14 14 14 14 14 14 14 14 14 13 13 13 13 13 13 12 11
19 19 19 18 18 17 16 15 15 15 15 14 13 13 13 13 13 14 14 13 13 13 13 13 13 14 14 14 13 13 13 13 13 13 13 13 13 13 13 13 13 13 13
19 19 19 18 18 17 15 15 15 14 14 14 13 13 13 13 13 13 14 13 13 13 14 13 13 13 13 13 13 12 12 12 12 12 12 12 12 12 12 12 12 12 12
18 18 18 18 18 17 16 15 14 15 14 14 14 14 14 14 13 13 13 14 14 14 13 13 13 13 13 13 13 12 12 12 12 12 12 12 11 11 12 12 13 13 13
18 18 18 18 17 17 17 15 15 14 14 14 14 14 14 14 14 14 14 14 14 13 13 13 13 13 13 13 13 12 12 12 12 12 12 12 12 12 12 12 12 13 13
19 19 18 18 17 17 16 16 15 14 14 14 14 14 15 14 14 14 14 14 13 13 12 13 13 13 12 12 12 12 12 12 12 12 12 12 12 12 12 12 12 12 12
20 19 19 18 17 17 16 16 15 14 14 14 14 14 14 14 14 13 13 13 12 12 12 12 12 12 12 12 12 12 12 12 12 12 12 12 12 12 12 12 12 12 12
20 19 18 18 17 17 16 16 15 14 14 13 13 13 13 13 13 13 13 12 12 12 12 12 12 12 12 12 12 12 12 12 12 12 12 12 11 11 11 11 10 11 11
20 20 19 18 17 17 16 15 15 14 14 13 13 13 13 12 12 12 12 11 11 11 12 11 11 12 12 12 12 12 12 12 11 11 11 11 10 10 10 10 10 10 11
20 20 20 19 18 17 16 15 14 14 13 13 13 13 12 12 12 12 12 12 12 12 12 12 12 12 12 12 12 11 11 10 10 10 10 9 9 10 10 10 10 11 10
20 20 21 20 19 17 16 15 14 13 13 13 13 12 12 12 12 11 11 11 11 12 12 12 12 12 12 11 11 10 10 10 10 9 9 9 9 9 10 10 10 10 10
20 21 21 21 19 17 15 14 14 14 13 13 13 13 12 12 11 11 11 11 12 12 12 12 12 11 11 10 10 10 10 10 9 9 9 9 9 9 9 9 10 10 10
20 20 21 20 19 17 15 15 14 14 13 13 13 12 12 11 11 11 11 12 11 11 11 11 10 9 9 9 9 10 10 10 9 9 9 9 9 9 9 9 9 9 9
20 20 20 20 18 17 15 14 14 13 13 13 12 12 11 11 11 11 11 11 11 10 10 10 9 8 7 8 9 9 10 9 9 8 8 8 8 9 9 8 8 8 8
20 20 20 20 18 17 16 14 13 13 13 12 12 12 11 11 12 11 11 11 10 10 10 9 8 8 7 7 8 8 9 9 8 8 8 8 9 9 8 8 8 8 8
18 19 19 19 17 17 16 14 13 13 12 12 11 11 11 12 11 11 10 10 9 9 9 8 7 6 6 6 5 6 6 7 8 8 9 9 8 7 7 7 7 7 7
17 17 18 18 16 16 14 14 13 12 12 11 11 11 11 11 11 10 10 9 9 8 8 7 6 5 5 5 4 3 3 2 2 5 6 6 5 5 5 5 6 6 6
17 16 16 16 15 14 14 14 13 12 12 11 11 11 11 11 10 10 9 9 8 7 6 5 5 4 4 4 3 3 2 1 1 1 3 4 4 4 4 5 4 4 5
16 16 15 15 14 14 14 13 12 12 12 11 11 11 11 10 10 9 9 8 7 6 6 5 4 4 3 3 3 3 2 2 1 -1 -1 2 3 3 3 3 3 3 3
15 15 14 14 13 13 13 13 12 11 11 11 11 11 11 10 9 9 8 7 7 6 5 4 4 4 3 3 2 2 1 1 -0 -1 -3 -2 -2 0 1 2 2 1 0

GEFSSE_850_meantemp_006.txt.gz
Temperature
21 20 18 16 16 15 15 15 15 15 15 15 14 14 14 14 14 14 14 13 13 13 13 13 13 13 14 14 14 13 13 13 13 13 14 15 16 16 16 15 13 12 12
21 20 18 16 15 15 15 15 15 15 15 14 14 14 14 14 14 13 13 13 13 13 13 13 13 13 13 13 13 13 13 13 13 14 14 14 15 15 15 14 13 12 13
21 20 18 16 15 15 15 15 15 15 14 14 13 13 13 13 13 13 13 13 13 13 13 13 13 13 13 13 13 13 13 13 14 14 14 13 13 14 14 14 13 13 13
20 19 17 16 15 15 15 15 15 14 14 14 13 13 13 13 13 13 13 13 13 13 13 13 13 13 13 13 13 13 13 14 14 14 13 12 12 13 14 13 13 12 13
21 19 18 16 15 15 15 15 14 14 14 14 13 13 13 13 13 13 13 13 13 13 13 13 13 13 13 13 13 13 13 13 14 13 12 12 12 13 14 13 12 12 12
20 18 20 17 15 15 15 14 14 14 14 14 13 13 13 13 13 13 13 13 13 13 13 13 13 13 13 13 13 14 14 14 13 12 13 13 13 13 14 14 13 13 12
18 17 19 18 16 15 14 14 14 14 15 14 13 13 13 13 13 13 13 13 13 13 13 14 14 13 13 14 14 14 14 14 14 13 13 13 13 14 14 14 14 14 14
18 17 18 17 16 15 15 14 14 15 15 15 14 13 13 13 13 14 13 13 13 14 14 14 13 13 13 13 13 13 13 13 13 12 12 12 13 13 14 13 13 13 13
17 17 17 17 16 15 15 14 14 15 15 15 14 13 13 14 13 13 14 13 13 14 14 13 13 13 13 13 13 13 13 13 13 12 12 12 13 13 13 13 13 13 13
18 16 16 17 15 15 15 14 14 15 15 15 14 14 14 14 14 13 13 14 14 14 14 13 13 13 13 13 13 13 13 13 12 12 12 12 13 13 13 13 13 13 13
18 17 16 16 16 15 15 14 14 14 14 14 15 15 14 14 14 14 14 14 14 14 13 13 13 13 13 13 13 13 13 12 12 13 13 13 13 13 13 13 13 13 13
18 18 17 16 16 15 15 14 14 14 14 14 14 15 14 14 14 14 14 14 14 13 13 13 13 13 13 12 12 13 12 12 12 12 12 13 13 13 12 12 12 12 12
18 18 18 17 16 15 15 14 14 14 14 14 14 14 15 15 14 14 13 13 13 13 13 12 12 12 12 13 13 12 13 12 12 11 11 12 12 11 10 10 11 11 11
17 18 18 18 17 16 15 14 14 14 14 14 14 14 14 14 14 13 13 13 12 12 12 12 12 12 12 12 12 12 12 12 11 11 10 11 11 10 10 10 10 10 10
18 18 18 18 18 17 16 15 14 14 14 14 14 14 14 13 13 13 12 12 12 12 11 12 12 12 12 12 11 11 11 10 10 9 9 10 10 9 10 10 10 10 10
19 19 19 19 18 18 17 16 15 14 14 13 14 14 13 13 12 12 12 12 11 11 11 12 12 12 11 11 11 10 10 9 9 9 8 9 9 9 9 9 9 10 10
19 18 19 19 19 18 17 16 15 15 14 13 13 13 13 12 12 12 12 12 11 11 12 12 12 11 11 10 9 9 9 9 9 8 8 8 8 8 9 9 9 9 9
18 19 18 19 19 18 17 16 15 15 14 13 13 13 13 12 12 12 12 11 11 12 12 11 11 11 10 10 9 9 9 9 8 7 7 8 8 8 8 9 9 9 9
18 18 19 19 19 19 17 15 15 14 14 13 13 13 13 12 12 12 11 11 11 11 11 11 10 10 10 10 10 10 9 8 7 7 7 7 8 8 8 8 8 8 8
18 18 19 19 19 18 16 15 15 14 14 13 13 13 12 12 12 11 11 11 11 11 10 10 10 9 9 9 9 9 8 8 7 6 6 7 7 7 7 7 7 7 7
18 18 19 19 19 18 17 15 15 14 14 13 13 12 12 12 12 11 11 11 11 10 10 9 9 8 8 8 9 8 7 8 6 6 7 7 6 7 6 6 6 6 6
17 18 18 19 19 18 17 16 16 15 14 13 13 12 12 11 11 11 11 11 10 10 9 9 8 8 7 7 7 6 6 7 6 7 6 6 6 6 6 6 6 6 5
16 17 18 19 18 17 16 14 15 15 14 13 12 12 11 10 11 11 11 10 10 10 9 8 8 7 6 6 5 5 5 6 5 5 5 5 5 6 6 6 5 5 5
16 17 17 18 18 17 16 15 15 15 13 12 12 11 10 10 10 10 10 10 10 9 8 8 7 6 6 5 4 4 4 3 2 3 3 3 2 3 3 3 3 4 4
15 16 17 17 17 17 16 14 14 14 14 13 11 10 10 10 10 10 10 10 9 8 8 7 6 6 5 4 4 4 3 2 1 1 2 2 1 0 -0 -0 1 1 1
14 15 16 16 16 16 14 13 13 14 14 13 11 10 10 10 10 10 9 9 8 8 7 6 6 5 4 4 3 3 2 1 1 0 0 0 -0 -0 -1 -1 -1 -0 -1

GEFSSE_850_meantemp_012.txt.gz
Temperature
20 21 20 19 18 17 16 16 16 16 15 15 15 15 15 14 14 14 14 14 14 14 14 14 14 14 14 14 14 13 13 13 14 14 14 15 15 15 16 15 13 12 12
21 21 20 19 18 17 16 16 15 15 15 14 14 14 14 14 14 14 14 14 14 14 14 13 14 14 14 13 13 13 13 14 14 14 14 14 13 14 14 14 12 12 12
20 20 19 19 18 17 16 15 15 15 14 14 14 14 14 14 13 14 14 14 14 14 14 14 14 14 14 14 14 14 14 14 14 14 13 13 13 13 14 14 13 13 13
20 20 19 19 17 16 16 15 15 15 14 14 13 13 13 13 13 14 14 14 14 14 14 14 14 15 15 14 14 14 15 14 14 13 13 13 13 13 14 14 14 14 13
19 19 19 18 17 16 16 16 16 15 15 14 13 13 13 14 14 13 13 13 14 14 14 14 14 15 15 15 15 14 14 14 13 13 13 13 13 13 14 14 14 14 14
18 18 18 18 16 16 15 16 16 16 15 15 14 14 14 14 14 13 13 13 13 14 14 14 14 14 14 14 14 14 14 14 14 13 13 12 13 13 13 14 14 14 14
18 18 18 17 16 15 16 16 16 16 16 15 14 14 14 14 14 14 13 13 14 14 14 14 13 13 13 13 14 14 14 14 14 12 12 12 12 13 13 13 13 13 13
18 18 17 17 16 16 16 16 16 16 16 15 15 14 14 14 14 14 14 13 14 14 14 14 13 13 13 13 14 14 14 14 14 13 12 13 13 13 13 12 12 13 13
18 18 18 17 16 16 16 17 16 16 16 16 15 15 14 14 14 14 14 13 14 14 14 14 13 13 13 13 14 14 14 14 13 13 13 13 13 13 13 13 13 13 13
18 18 17 17 16 16 16 16 17 16 16 16 15 15 14 14 14 14 14 14 14 14 14 13 13 13 13 14 14 14 14 14 13 13 13 13 13 13 13 13 13 13 13
18 17 17 17 16 16 16 16 16 16 16 15 15 15 14 14 14 14 14 14 14 14 14 13 13 13 13 14 14 13 13 13 13 13 13 13 13 13 12 12 12 12 12
18 18 17 17 16 16 15 15 16 16 16 15 15 15 14 13 13 14 14 14 14 14 14 13 13 13 13 13 13 13 13 13 13 12 12 12 12 11 11 11 11 11 10
18 18 17 17 16 16 15 15 15 15 15 15 14 14 14 13 13 13 14 14 14 14 13 13 13 13 13 14 14 13 13 12 11 11 11 11 11 10 10 10 10 10 10
19 18 17 17 16 16 16 15 15 14 15 15 13 13 14 14 14 13 13 13 13 13 13 13 13 13 13 14 13 13 12 11 10 10 10 10 10 10 9 9 9 9 10
20 19 18 17 16 16 15 15 15 14 14 14 14 13 14 14 13 13 13 12 12 13 13 13 13 13 13 13 13 12 11 11 10 10 10 10 10 10 9 9 9 9 9
20 19 18 17 16 16 16 15 15 14 14 14 14 13 13 13 13 13 13 12 12 12 12 13 13 13 13 13 12 11 11 10 9 9 9 9 9 9 9 9 9 9 9
20 20 19 18 17 16 16 15 15 14 14 14 14 13 13 13 13 13 13 12 12 12 12 13 13 13 13 12 12 11 10 10 9 8 8 8 8 8 9 9 9 9 9
20 20 19 18 17 17 17 16 15 14 14 14 14 13 13 13 13 13 13 12 12 12 12 12 12 12 12 12 12 11 10 9 9 8 7 7 7 8 8 8 8 8 8
20 20 20 19 18 17 17 17 16 15 14 14 14 13 13 13 13 13 12 12 12 12 12 12 12 12 12 12 11 11 10 9 8 8 7 7 7 7 7 7 8 8 8
20 20 20 19 18 17 17 17 15 15 14 14 14 13 13 13 13 13 12 12 12 12 12 12 12 11 11 11 11 10 9 8 8 7 7 7 7 7 7 7 7 7 7
19 20 20 19 18 17 17 16 16 15 14 14 14 13 14 13 13 12 12 12 12 12 11 11 11 11 11 11 10 9 8 8 8 7 7 7 7 6 6 6 7 7 7
19 19 19 19 18 17 17 17 16 14 14 14 13 13 13 13 13 12 12 12 12 12 11 11 11 10 10 10 10 9 8 7 7 7 7 7 6 6 6 6 6 6 6
18 18 18 18 18 17 16 15 14 13 13 13 13 13 13 13 12 12 11 11 11 11 11 11 10 10 9 9 9 8 8 7 7 7 6 6 5 5 5 5 5 5 4
17 18 18 18 17 17 16 15 14 14 14 13 13 13 13 12 12 12 11 11 11 11 11 10 10 9 9 8 8 7 6 6 5 5 5 5 4 4 4 4 4 4 4
17 17 17 17 17 16 16 15 14 14 14 13 13 12 12 12 11 11 11 11 11 11 10 10 9 8 8 7 7 6 6 5 4 3 3 4 3 3 3 3 3 2 2
17 17 17 17 17 16 15 14 13 13 13 13 12 12 12 11 11 11 10 10 10 10 10 9 9 8 7 7 6 5 5 4 3 2 2 2 2 2 2 2 1 1 0

GEFSSE_850_meantemp_018.txt.gz
Temperature
18 18 19 19 19 19 18 18 18 17 16 16 15 15 15 14 14 14 14 15 15 15 15 14 14 14 14 14 14 14 14 14 14 15 15 16 16 16 16 16 15 13 13
19 19 19 19 20 20 19 19 19 18 17 15 15 15 14 14 14 14 15 15 15 14 14 14 14 14 14 14 14 14 14 14 14 14 15 15 15 15 15 15 14 13 13
19 19 19 20 20 20 19 19 19 18 17 15 14 14 14 14 14 15 15 15 15 14 13 13 14 14 14 14 14 15 14 14 14 14 14 14 14 14 14 14 14 14 13
20 19 19 19 20 20 20 20 19 18 17 15 14 14 14 14 14 15 15 15 15 14 14 14 14 14 15 15 15 15 14 14 13 14 14 14 14 14 14 14 14 14 13
20 20 19 19 19 19 19 20 19 19 17 16 15 14 14 14 15 15 15 15 15 15 15 15 15 15 15 14 14 14 13 13 13 13 13 13 13 13 14 14 14 14 14
20 20 19 19 19 19 19 19 19 19 18 16 15 14 14 14 14 14 14 14 14 14 14 14 14 14 14 14 14 14 13 13 13 13 13 12 12 13 13 13 13 14 13
20 19 19 18 18 19 19 19 19 19 18 16 15 15 14 14 14 14 14 14 14 14 14 14 14 14 14 14 14 14 14 13 13 13 13 12 12 12 13 13 13 13 13
20 19 18 17 18 18 18 18 19 19 18 17 15 15 15 14 14 14 14 14 14 14 14 14 14 14 14 14 14 14 14 13 13 13 12 12 12 12 13 13 13 13 12
19 18 18 17 17 18 18 18 18 18 18 17 16 15 14 14 14 14 14 14 14 14 14 14 14 14 14 14 14 14 14 13 13 13 13 12 12 12 13 13 13 12 12
18 18 17 17 17 17 17 17 17 18 17 16 15 15 14 14 14 14 14 14 14 14 14 14 14 14 14 14 14 14 14 13 13 13 12 12 12 12 12 12 11 11 11
18 18 17 17 17 17 17 16 16 17 17 16 15 15 14 14 14 14 14 14 14 14 14 14 14 13 13 13 14 14 14 14 13 13 12 12 12 11 11 11 11 10 10
18 18 17 17 17 16 16 16 16 16 17 17 16 15 14 14 14 14 14 14 14 14 14 14 13 13 13 13 14 13 14 14 13 12 11 11 11 10 10 10 9 9 9
18 18 17 17 17 16 16 16 16 16 16 16 16 15 15 15 14 14 14 14 14 14 14 14 13 13 13 14 14 13 13 13 12 11 11 10 10 10 9 9 9 9 9
19 18 18 17 17 16 16 16 16 16 16 16 16 16 15 15 15 14 14 14 14 14 14 13 13 13 13 13 13 13 13 12 11 10 10 10 10 9 9 9 9 9 9
19 19 18 18 17 17 16 16 16 16 15 16 16 16 16 15 15 14 14 13 13 13 13 13 13 13 13 13 13 13 12 12 11 10 10 9 9 9 9 9 9 9 9
18 18 18 18 18 17 17 16 16 16 15 15 15 15 15 15 14 14 13 13 13 13 13 12 13 13 13 13 13 12 12 11 10 10 9 9 9 8 8 8 8 8 8
19 18 18 18 18 18 18 17 16 16 15 15 14 14 14 14 14 14 13 13 13 12 12 12 13 13 13 13 13 12 11 10 10 9 9 8 8 8 8 8 8 8 8
19 19 18 18 18 18 18 17 17 16 15 15 14 14 14 13 13 13 13 13 12 12 12 12 13 13 13 13 12 12 11 10 9 8 8 8 8 8 8 8 8 8 7
19 19 19 18 18 18 18 18 17 16 15 15 14 14 13 13 13 13 13 12 12 12 12 12 13 13 13 13 12 11 10 9 9 8 8 7 7 7 7 7 7 7 7
18 19 19 18 18 18 17 17 17 16 16 15 14 14 13 13 13 13 12 12 12 12 12 12 12 12 13 12 12 11 9 9 8 8 7 7 7 7 7 6 6 6 6
18 18 18 18 18 18 17 17 17 16 16 15 15 14 14 13 13 12 12 12 12 12 12 12 12 12 12 12 11 10 9 8 8 7 7 7 6 6 6 6 5 5 5
18 18 18 18 18 18 17 17 17 17 17 16 15 14 14 14 13 13 12 12 12 12 12 12 12 12 12 12 11 10 9 8 7 7 7 7 6 6 5 5 5 5 5
17 17 17 17 17 17 17 17 17 16 16 16 15 14 14 14 13 13 13 12 12 12 12 12 12 11 12 11 11 11 10 9 8 7 7 6 6 6 5 5 4 4 4
17 17 17 17 17 17 17 17 17 17 16 16 16 15 15 14 13 13 13 12 12 12 11 11 11 11 11 11 11 10 10 10 9 8 7 6 6 5 5 4 4 4 4
16 16 16 17 17 16 16 16 17 17 17 17 16 16 15 14 13 13 13 12 12 11 11 11 11 11 11 10 10 10 9 9 8 7 7 6 5 5 4 4 4 3 2
16 16 16 16 16 16 16 16 16 16 16 16 16 15 15 14 13 12 12 12 11 11 11 11 11 10 10 10 9 9 8 8 7 6 5 5 4 5 4 4 3 2 2

GEFSSE_850_meantemp_024.txt.gz
Temperature
20 18 17 17 18 17 17 16 16 16 16 16 15 15 15 15 15 15 15 15 15 15 14 14 14 14 14 14 14 14 14 15 15 15 15 15 15 15 15 15 14 13 12
21 18 17 17 18 17 17 17 16 16 15 15 15 15 15 15 15 15 15 15 14 14 14 14 14 14 14 14 14 14 14 14 14 14 14 15 15 15 15 14 14 13 13
21 19 18 18 18 18 18 18 17 16 15 15 14 14 14 15 15 15 15 14 13 13 13 13 13 13 13 14 14 14 15 14 14 14 14 14 15 14 14 14 14 13 13
20 19 19 18 18 18 19 18 17 16 15 14 14 14 14 15 15 15 15 14 13 13 13 13 13 14 14 14 15 15 15 14 14 14 14 14 14 14 14 14 14 14 13
20 20 19 19 19 19 19 19 18 16 15 14 14 14 15 15 15 16 15 15 15 15 14 14 14 14 14 14 15 15 15 14 14 13 13 13 13 13 13 14 14 14 13
20 19 19 19 19 19 19 19 18 16 15 14 14 14 15 15 15 15 15 15 15 15 15 14 14 14 14 14 14 14 14 13 13 13 13 13 13 13 13 13 13 13 13
19 19 19 19 19 19 19 19 18 16 15 15 15 15 15 15 15 16 15 15 15 15 14 14 14 14 14 14 14 14 13 13 13 13 13 13 13 12 13 13 13 13 13
19 18 18 19 19 19 19 19 18 17 16 15 15 15 15 15 15 15 15 15 15 14 14 13 13 14 14 14 14 14 13 13 13 13 13 13 12 12 13 13 13 13 13
18 18 18 19 19 19 19 19 18 17 16 16 16 15 15 15 15 15 15 15 14 14 13 13 13 14 14 14 14 14 13 13 13 13 12 12 12 12 12 12 12 12 12
18 18 18 19 19 19 19 19 18 18 17 16 16 15 15 14 14 14 14 14 14 13 13 13 13 13 14 14 14 13 13 13 13 13 12 12 12 12 12 12 12 11 11
17 17 18 18 18 19 19 18 18 18 17 16 16 15 14 14 14 14 14 14 14 14 13 13 13 13 13 13 14 14 13 13 13 12 12 11 11 11 11 11 11 11 11
18 18 17 18 18 18 18 18 18 18 18 17 16 15 14 14 14 14 13 13 13 13 14 14 13 13 13 13 13 14 13 13 13 12 11 11 10 10 10 10 10 10 10
19 18 18 17 17 17 17 17 17 18 18 17 16 15 14 14 14 14 13 13 13 13 14 14 13 13 13 13 13 13 13 13 12 11 11 10 10 9 9 9 9 9 9
19 19 18 17 17 17 17 17 17 17 17 18 17 16 15 14 14 14 13 13 13 13 13 13 13 13 13 13 13 13 13 13 12 11 10 10 9 9 9 9 9 9 9
18 18 18 18 17 17 16 16 16 16 16 17 17 17 16 15 14 14 13 13 13 13 13 13 13 13 13 13 13 13 13 12 11 10 10 9 9 9 9 9 9 8 8
18 18 18 18 17 17 17 16 16 16 16 16 16 16 16 15 14 14 13 13 13 13 13 12 12 12 12 13 13 13 12 12 11 10 9 9 9 9 8 8 8 8 8
17 17 17 17 17 17 17 17 17 16 16 16 16 16 15 15 15 14 13 13 13 13 12 12 12 12 12 12 12 12 12 11 10 10 9 9 9 8 8 8 8 8 8
17 17 17 17 17 17 17 17 17 17 16 16 16 15 15 15 14 14 13 13 13 12 12 12 12 12 12 12 12 12 12 11 10 9 8 8 8 8 8 8 8 8 8
18 18 17 17 17 17 17 17 17 17 16 16 16 15 15 14 14 14 13 13 12 12 12 12 12 12 12 12 12 12 11 11 10 9 8 8 8 8 8 8 8 8 8
17 17 17 17 17 17 17 17 17 16 16 16 16 15 15 15 14 13 13 13 12 12 12 11 11 11 12 12 12 12 11 10 9 9 8 8 7 7 7 7 7 7 7
17 17 17 17 17 17 17 17 17 16 16 16 16 16 15 15 14 13 13 13 12 12 12 11 11 11 11 12 12 11 10 10 9 8 8 8 7 7 7 7 7 7 6
17 17 17 17 17 17 17 17 17 17 17 17 17 16 16 15 14 14 13 13 12 12 12 11 11 11 11 12 12 11 10 10 9 9 8 8 7 7 6 6 6 6 6
16 17 17 16 16 17 17 16 16 16 16 16 16 16 16 15 15 15 14 14 13 12 12 12 11 11 12 12 12 12 12 11 9 9 9 8 7 7 6 6 6 5 5
16 16 16 16 16 16 16 16 16 16 15 16 16 16 16 16 15 15 15 14 13 13 12 12 11 11 12 12 12 11 11 11 11 10 9 8 7 7 6 6 5 5 5
15 15 15 16 16 16 16 16 16 16 16 16 15 15 15 16 15 15 15 15 14 13 12 12 11 11 12 12 12 11 11 10 10 10 9 9 8 7 6 5 5 4 4
14 14 15 15 15 15 15 15 15 15 15 15 15 15 15 15 15 15 15 15 14 14 13 12 11 11 11 11 11 11 11 10 10 10 9 9 8 7 6 5 4 4 4

GEFSSE_850_meantemp_030.txt.gz
Temperature
21 20 18 17 17 16 16 16 16 16 16 16 16 15 15 15 15 15 15 15 15 15 14 14 14 14 14 14 14 14 15 15 15 15 15 15 16 15 15 15 14 13 14
21 20 19 17 17 16 16 16 16 16 16 16 15 15 15 15 15 15 15 15 15 15 14 14 14 14 14 14 14 14 15 15 15 15 15 15 15 15 15 14 14 13 13
20 20 19 18 17 16 16 16 16 15 15 15 15 15 15 15 15 15 15 15 14 14 14 14 14 14 14 14 14 14 14 15 15 15 14 13 14 15 14 14 14 14 13
19 20 19 18 18 17 16 16 15 15 15 15 15 15 15 15 15 15 15 14 14 14 14 14 15 15 15 15 14 14 14 14 14 14 13 13 13 14 14 14 14 13 13
18 19 19 19 18 18 17 16 16 15 15 15 15 15 15 15 16 15 15 14 14 14 14 15 15 15 15 15 14 14 14 14 14 13 13 13 13 14 14 14 13 13 13
17 17 19 19 18 18 18 17 16 15 15 15 15 15 15 16 16 16 16 15 15 14 15 15 15 15 15 15 14 14 14 14 13 13 13 12 12 13 13 13 13 13 13
17 17 18 18 18 18 18 17 16 15 15 15 15 15 15 16 16 16 16 15 15 15 15 15 15 15 15 14 14 14 14 14 13 13 13 13 13 13 13 13 13 13 13
17 17 17 18 18 18 18 17 17 15 15 14 15 15 15 16 16 16 15 15 15 15 14 14 15 14 14 14 14 14 14 14 13 13 13 13 13 13 13 13 13 12 12
17 17 17 17 17 17 18 17 17 15 15 14 14 15 15 15 15 15 15 15 15 14 14 14 14 14 14 14 14 14 14 14 13 13 13 12 13 12 12 12 12 12 12
17 17 17 17 16 16 17 17 16 16 15 14 14 14 15 15 15 15 15 15 14 14 14 14 14 14 14 14 14 14 14 13 12 12 12 12 12 12 12 12 12 11 11
17 17 16 16 16 16 15 16 16 16 15 15 14 14 14 14 14 14 14 14 14 14 14 14 14 14 14 14 14 14 13 12 12 11 11 12 12 12 11 11 11 11 11
17 17 16 16 16 16 16 16 15 15 15 15 14 14 14 13 13 13 14 14 14 14 14 14 14 14 14 14 14 14 13 12 11 11 11 11 11 11 11 11 11 11 11
16 16 17 16 16 16 16 16 15 15 15 15 14 14 14 13 13 13 13 13 13 13 14 14 14 14 13 13 13 13 13 12 11 11 10 11 11 11 11 11 10 10 10
16 16 17 17 17 16 16 16 16 16 16 15 15 15 14 14 13 13 13 13 13 13 13 13 13 14 13 13 13 13 13 12 11 10 10 11 10 10 10 10 10 10 10
16 16 17 17 17 17 16 16 16 16 16 16 16 16 15 14 14 14 13 13 13 13 13 13 13 13 13 13 13 13 12 12 11 10 10 11 10 10 10 10 10 10 10
16 16 17 17 17 17 17 16 16 16 16 15 15 16 15 15 15 14 14 14 13 13 13 13 13 13 13 13 13 12 12 12 11 10 9 10 10 10 10 10 10 9 9
16 16 16 17 17 17 17 17 16 16 16 16 15 15 15 15 15 15 14 14 13 13 13 13 13 13 12 12 12 12 12 11 11 10 9 9 10 10 10 10 10 9 9
16 16 16 17 17 17 17 17 17 17 16 16 16 15 15 15 15 14 14 14 14 13 13 13 13 12 12 12 12 12 12 11 10 10 10 9 9 9 9 9 9 9 9
16 17 17 17 17 17 17 17 17 17 17 16 16 16 16 15 15 14 14 14 14 13 13 13 12 12 12 12 12 12 11 11 10 10 9 9 9 9 9 9 9 9 9
16 16 17 17 17 17 16 16 16 16 17 17 17 17 16 16 15 14 14 14 14 13 13 12 12 12 12 11 11 11 11 10 10 10 9 9 9 9 9 9 9 9 8
16 16 16 16 17 17 16 16 16 16 17 17 17 17 17 16 16 15 15 14 14 13 13 12 12 12 11 11 11 11 11 11 10 10 9 9 9 9 9 9 9 8 8
16 16 16 16 16 16 16 16 16 16 16 16 17 17 16 16 16 16 15 15 15 14 13 12 12 12 11 11 11 10 10 9 10 10 10 9 9 9 9 9 9 8 8
15 15 16 16 16 16 16 16 15 15 14 14 15 16 16 16 16 16 15 15 15 14 13 13 13 12 11 11 11 11 11 10 10 10 10 10 10 9 9 9 9 8 8
14 14 15 15 15 15 15 15 15 14 14 14 15 15 16 16 15 15 15 14 14 14 14 13 13 12 12 11 11 11 11 11 11 10 10 10 10 9 9 9 9 8 7
13 13 14 14 14 15 15 15 14 14 13 13 14 14 14 14 15 15 14 14 14 14 14 13 13 12 12 12 11 11 11 11 11 11 11 11 10 10 9 9 8 8 7
12 12 13 13 13 14 14 14 14 14 14 13 13 13 13 13 14 14 13 13 13 14 14 13 13 13 12 12 12 11 11 11 11 11 11 11 11 10 9 8 8 7 6

GEFSSE_850_meantemp_036.txt.gz
Temperature
22 23 21 21 19 18 17 17 16 16 16 16 16 16 15 15 15 15 15 15 15 15 15 15 15 15 15 15 15 15 15 15 15 16 16 16 16 16 15 14 13 14 14
22 22 21 20 19 17 17 16 16 16 16 16 16 15 15 15 15 15 15 15 15 15 15 15 15 15 15 15 15 15 15 15 15 15 15 15 15 15 15 14 14 15 15
21 22 21 20 18 17 16 16 16 16 16 15 15 15 15 15 16 16 15 15 15 15 15 15 15 15 15 15 15 15 15 14 14 13 13 13 14 15 15 14 14 14 14
20 21 21 20 18 17 16 16 16 15 15 15 15 15 15 16 16 16 15 15 15 15 15 15 15 15 15 15 15 15 14 14 13 13 13 13 14 14 14 14 14 14 14
19 19 20 20 18 17 16 15 15 15 15 15 15 15 16 16 16 16 15 15 15 15 15 15 15 15 15 15 15 15 14 13 13 13 13 13 14 14 14 14 14 14 14
18 19 20 19 18 17 16 15 15 15 15 15 15 15 16 16 16 16 15 15 15 15 15 15 15 15 15 15 15 15 14 13 13 13 13 13 14 14 14 14 14 14 13
17 19 19 19 18 17 17 16 15 15 15 15 15 16 16 17 17 17 16 15 15 15 15 15 15 15 15 15 15 15 14 14 13 13 13 14 14 14 14 14 13 13 13
18 18 19 19 18 18 17 16 16 15 15 15 15 16 16 16 17 17 16 16 16 16 15 15 15 15 15 15 15 15 15 14 13 13 13 14 14 14 14 13 13 13 13
18 18 19 19 19 18 18 17 16 15 15 15 15 16 16 16 16 16 16 16 16 16 15 15 15 15 15 15 15 15 14 14 13 13 13 13 13 13 13 13 12 12 12
17 17 18 18 18 18 18 17 16 15 15 15 15 16 16 16 16 16 16 16 16 16 16 16 15 15 15 15 15 15 14 13 13 13 13 13 13 13 12 12 12 12 12
16 16 16 17 17 17 18 17 17 15 15 15 15 16 16 16 16 16 16 16 16 16 15 15 15 15 15 15 15 15 14 13 13 13 13 12 12 12 12 11 11 11 12
16 16 16 16 16 16 16 17 17 16 15 15 16 16 16 16 15 15 16 15 15 15 15 15 15 15 15 15 15 14 14 13 13 13 13 12 12 11 11 11 11 11 11
16 16 16 16 16 16 16 16 16 16 16 16 15 16 16 15 14 14 15 15 15 15 15 15 15 15 15 15 14 14 14 13 13 13 13 12 12 12 11 11 11 11 12
16 16 16 16 16 16 16 16 15 15 15 16 15 15 15 15 14 14 14 15 15 15 15 15 15 15 14 14 14 14 14 13 12 13 13 12 12 12 11 11 11 11 12
16 16 16 16 16 16 16 15 15 15 15 15 15 15 15 15 14 14 14 14 14 14 14 14 14 14 14 14 14 13 13 13 12 12 13 12 12 12 12 11 11 11 11
17 16 16 16 16 16 16 16 15 15 15 15 15 15 15 14 14 14 14 14 14 13 13 13 13 13 13 13 13 13 13 12 12 12 12 12 12 12 12 11 11 11 11
18 17 17 17 17 16 16 16 16 16 15 15 15 15 15 14 14 14 14 14 14 13 13 13 13 13 13 13 13 13 13 12 12 12 12 12 12 12 12 11 11 11 10
18 18 17 17 17 16 16 16 16 16 16 15 15 15 15 15 14 14 14 14 14 13 13 13 13 12 13 13 13 13 13 12 12 11 12 12 12 12 12 11 11 11 10
18 18 18 17 17 17 16 16 16 16 16 16 16 15 15 15 14 14 14 14 14 13 13 13 13 13 13 13 13 12 12 12 12 11 11 11 12 12 12 11 11 11 10
18 17 17 17 17 17 16 16 16 16 16 16 16 16 16 15 15 14 14 13 13 13 13 13 13 12 12 12 12 12 12 12 12 12 11 11 11 11 12 11 11 11 10
17 16 17 17 17 16 16 16 16 16 16 16 16 16 16 16 15 15 14 13 13 13 13 13 12 12 12 11 11 11 11 11 11 11 11 11 11 11 11 12 11 11 10
15 15 15 16 16 16 16 15 15 15 15 15 15 15 15 15 15 14 14 13 13 13 13 12 12 12 12 11 11 11 10 10 10 11 11 11 11 11 11 11 11 11 10
14 14 14 14 15 15 15 15 15 15 15 15 15 15 15 15 14 14 13 13 12 12 12 12 12 12 12 11 11 11 11 11 11 11 11 11 10 10 10 10 10 10 10
12 13 13 14 14 14 14 15 15 15 14 14 14 14 14 14 14 14 13 13 12 12 12 12 12 12 11 11 11 10 11 11 11 11 10 10 10 9 10 10 9 9 9
12 12 12 13 13 13 13 14 14 14 14 14 13 13 13 13 13 13 13 13 12 12 12 12 12 11 11 11 11 11 10 10 10 11 11 10 10 9 9 9 8 8 8
11 12 12 12 12 12 12 12 12 12 13 13 13 13 13 13 13 13 13 12 12 12 11 11 11 11 11 11 10 10 10 9 10 10 10 11 10 10 8 7 7 7 6

GEFSSE_850_meantemp_042.txt.gz
Temperature
19 20 20 19 18 17 17 17 17 17 16 16 16 15 15 15 15 15 15 15 15 15 15 15 15 15 15 15 15 15 15 15 16 16 16 16 16 16 15 15 15 14 13
21 20 20 19 18 17 17 17 17 17 16 16 16 15 15 15 16 15 15 15 15 15 15 15 15 15 15 15 15 15 15 15 15 15 15 15 15 15 15 15 15 14 14
20 20 20 19 18 18 17 17 17 17 16 16 16 16 16 16 16 15 15 15 15 15 15 16 16 16 15 15 15 15 15 15 15 15 15 15 15 15 15 15 14 14 14
20 20 20 19 19 18 18 17 17 17 16 16 16 17 17 16 16 15 15 15 15 15 15 16 16 16 15 15 15 15 15 15 15 15 15 15 15 15 14 14 14 14 14
20 20 20 19 19 18 18 17 17 16 16 17 17 17 17 16 16 15 15 15 15 15 16 16 16 16 15 15 15 15 14 15 15 15 14 14 14 14 14 14 14 13 13
19 19 19 19 18 18 18 17 17 16 17 17 17 18 18 17 16 16 16 15 15 16 16 16 16 16 15 15 15 15 14 15 15 14 14 14 14 14 14 13 13 13 13
19 19 18 18 18 18 18 17 17 17 17 17 18 18 18 18 17 17 16 16 16 16 16 16 16 16 16 15 15 15 15 15 15 14 14 14 14 14 13 13 13 13 13
19 18 18 18 18 18 18 18 17 17 17 17 17 18 18 18 18 17 17 16 16 16 16 16 16 16 16 15 15 15 15 15 15 14 14 14 14 14 13 13 13 13 13
18 18 18 18 18 18 18 18 18 18 18 18 18 18 18 18 18 18 17 17 17 16 16 16 16 16 16 16 16 15 15 15 15 15 14 14 14 13 13 13 12 12 12
17 17 18 18 18 18 18 18 18 18 18 18 18 18 18 18 18 18 17 17 17 16 16 16 16 16 16 16 16 16 16 15 15 15 14 14 13 13 13 13 12 12 12
17 17 18 18 18 18 18 18 18 18 17 18 18 18 18 18 17 17 17 17 17 16 16 16 16 16 16 16 16 16 15 15 15 15 14 14 13 13 13 13 12 12 12
17 17 17 18 18 18 18 18 18 18 18 18 17 17 17 17 17 17 17 17 16 16 16 16 16 16 16 15 15 15 15 15 15 15 14 14 13 13 13 13 12 12 12
17 17 17 17 17 18 18 18 18 18 18 17 17 17 17 17 17 17 17 17 16 16 16 16 16 16 15 15 15 15 15 15 15 15 14 14 13 13 13 13 13 13 13
17 17 17 17 17 17 17 17 17 18 18 17 17 17 16 16 16 17 16 16 16 16 16 16 16 15 15 15 15 15 15 15 14 14 14 14 13 13 13 13 13 13 13
17 17 17 17 17 17 17 17 17 17 17 17 16 16 16 16 16 16 16 16 15 15 15 15 15 15 15 15 15 14 14 14 14 14 14 13 13 13 13 13 13 13 13
17 17 17 17 17 17 17 17 17 17 17 16 16 16 16 16 16 16 16 15 15 15 15 14 14 14 14 14 14 14 14 14 14 14 13 13 13 13 13 12 12 12 12
18 17 17 17 17 17 17 16 16 16 16 16 16 16 15 15 15 15 15 15 15 14 14 14 14 14 14 13 13 13 13 13 13 13 13 13 13 13 12 12 12 12 11
17 17 17 17 16 16 16 16 16 16 16 16 16 15 15 15 15 15 15 15 15 14 14 14 13 13 13 13 13 13 12 12 13 13 13 13 12 12 12 12 12 11 11
18 17 17 17 17 16 16 16 16 16 16 16 15 15 15 15 15 15 15 15 14 14 14 13 13 13 13 13 12 12 12 12 12 12 12 12 12 12 12 11 11 11 11
18 17 17 17 17 16 16 16 16 15 15 15 15 15 15 15 15 15 14 14 14 13 13 13 13 13 13 13 12 12 12 12 11 12 12 12 11 11 11 11 11 11 10
17 17 17 17 16 16 16 15 15 15 16 15 15 15 15 15 15 14 14 14 14 14 13 13 13 13 13 13 12 12 12 11 11 11 11 11 11 11 11 11 11 10 10
17 17 17 16 16 16 16 15 15 15 15 15 15 15 15 14 14 14 14 14 14 13 13 13 13 13 13 12 12 12 11 11 12 12 11 11 11 11 11 10 10 10 10
16 16 16 16 16 16 15 15 15 15 15 15 15 15 15 14 14 14 14 13 13 13 13 13 13 12 12 12 12 11 11 11 12 12 12 11 11 11 11 10 10 9 9
15 15 15 15 15 15 15 15 14 14 14 14 14 14 14 14 14 13 13 13 13 13 13 13 12 12 12 12 12 11 11 11 11 11 11 11 11 11 10 10 9 9 8
13 13 13 13 13 14 14 14 14 14 14 14 14 14 14 14 13 13 13 13 13 12 12 12 12 12 12 11 11 11 11 10 10 10 10 10 11 11 10 10 9 8 8
12 12 12 12 12 12 12 13 13 13 13 13 13 13 13 13 13 13 13 12 12 12 12 12 12 11 11 11 11 10 10 10 9 9 9 9 9 10 9 9 9 8 7

GEFSSE_850_meantemp_048.txt.gz
Temperature
19 18 17 17 17 17 17 17 16 16 16 16 16 16 16 16 16 15 15 15 15 16 16 16 15 15 15 15 15 15 16 16 16 16 16 16 16 16 15 15 14 14 13
21 19 17 17 17 17 17 17 16 16 16 16 16 16 16 16 16 15 15 15 16 16 16 16 16 15 15 15 15 16 16 16 16 16 16 16 16 15 15 15 14 14 14
21 19 18 17 17 17 17 16 16 16 16 16 16 17 16 16 16 15 15 16 16 16 16 16 16 16 16 16 16 16 16 16 16 16 16 16 15 15 15 15 14 14 14
20 19 18 17 17 17 17 16 16 16 16 16 17 17 16 16 16 16 16 16 16 16 17 17 16 16 16 16 16 16 16 16 16 16 16 15 15 15 14 14 14 14 14
20 19 18 17 17 17 16 16 16 16 16 16 17 17 16 16 16 16 16 16 16 16 16 16 16 16 16 16 16 16 16 16 16 16 15 15 15 14 14 14 14 14 13
19 19 18 17 17 17 17 16 16 16 16 17 17 17 16 16 16 16 16 16 16 16 16 16 16 16 16 16 16 16 16 15 15 15 15 15 14 14 14 14 13 13 13
19 18 18 17 17 17 17 17 17 17 17 17 17 17 16 16 16 16 16 16 16 16 16 16 16 16 16 16 16 16 16 15 15 15 15 15 14 14 14 13 13 13 13
18 18 17 17 17 17 17 17 17 17 17 18 17 17 17 17 17 17 17 17 17 17 16 16 16 16 16 16 16 16 15 15 15 15 15 14 14 14 13 13 13 13 13
17 17 17 17 16 17 17 17 17 17 17 18 18 18 18 17 17 17 17 17 17 17 17 16 16 16 16 16 16 16 15 15 15 15 14 14 14 13 13 13 13 13 13
16 16 17 17 16 16 17 17 17 17 17 17 18 18 18 18 18 17 17 17 17 17 17 16 16 16 16 16 16 16 15 15 15 15 14 14 13 13 13 13 13 12 13
15 16 16 16 16 16 16 16 16 16 17 17 17 18 18 18 18 18 17 17 17 17 16 16 16 16 16 16 16 16 15 15 15 14 14 13 13 13 13 13 12 12 12
15 15 16 16 16 16 16 16 16 16 16 17 17 17 17 17 17 17 17 17 17 17 16 16 16 16 16 16 16 15 15 15 15 14 14 13 13 13 12 12 12 12 13
16 16 16 16 16 16 16 17 17 17 17 17 17 17 17 17 17 17 17 17 17 16 16 16 16 15 15 15 15 15 15 15 15 14 14 13 13 13 12 12 12 12 12
17 17 16 16 16 16 17 17 17 17 17 17 16 16 16 17 17 17 17 16 16 16 16 15 15 15 15 15 15 15 14 14 14 14 14 13 13 12 12 12 12 12 12
17 17 17 17 17 17 17 17 17 17 16 16 16 16 16 16 16 16 16 16 16 15 15 15 15 14 14 14 14 14 14 14 13 13 13 13 13 12 12 12 12 12 12
17 17 17 17 16 16 16 16 16 16 16 16 16 16 16 16 16 16 16 15 15 15 15 14 14 14 14 13 13 13 13 13 13 13 13 13 12 12 12 12 12 11 11
17 17 17 16 16 16 16 16 16 16 16 16 16 15 15 15 15 15 15 15 15 14 14 14 14 13 13 13 13 13 13 13 12 12 12 12 12 12 12 12 11 11 11
16 16 16 16 16 16 16 16 15 15 15 15 15 15 15 15 15 15 15 15 14 14 14 13 13 13 13 13 13 13 12 12 12 12 12 12 12 12 12 11 11 11 11
17 16 16 16 16 16 16 15 15 15 15 15 15 15 15 15 14 14 14 14 14 14 13 13 13 13 13 13 13 13 13 12 12 12 12 12 12 12 12 11 11 11 11
17 17 16 16 16 16 15 15 15 15 15 15 15 15 15 15 14 14 14 14 14 13 13 13 13 13 13 13 13 12 13 12 12 12 12 12 12 12 12 11 11 11 11
17 17 17 16 16 16 16 15 15 15 15 15 15 15 14 14 14 14 14 14 14 13 13 13 13 13 13 13 12 12 12 12 12 12 12 12 12 12 12 11 11 10 10
17 17 17 16 16 16 16 15 15 15 15 15 15 15 14 14 14 14 14 14 14 13 13 13 13 13 12 12 12 11 11 11 12 12 12 12 12 11 11 11 11 10 10
17 17 16 16 16 16 16 15 15 15 15 15 15 15 14 14 14 14 14 14 13 13 13 13 13 12 12 12 12 11 11 11 11 11 11 11 11 11 11 11 10 10 9
16 16 16 16 15 15 15 15 15 15 14 14 14 14 14 14 14 14 14 13 13 13 13 13 12 12 12 11 11 11 10 10 10 10 10 10 10 10 10 10 10 9 9
15 15 15 15 14 14 14 14 14 14 14 13 13 13 13 13 13 13 13 13 13 12 12 12 12 12 12 11 11 10 10 10 10 9 9 9 9 9 9 9 9 9 8
14 14 13 13 13 13 13 13 13 12 12 12 12 12 12 12 12 12 12 12 12 12 12 11 11 11 11 11 10 10 10 9 9 9 8 8 8 8 8 8 8 8 8

GEFSSE_850_meantemp_054.txt.gz
Temperature
18 17 17 17 16 16 16 16 16 16 16 16 16 16 16 16 16 15 16 16 16 16 15 15 15 16 16 16 16 16 16 16 16 16 16 16 16 15 15 14 13 13 14
19 17 17 17 17 16 16 16 16 16 16 16 16 16 16 16 16 16 16 16 16 16 16 16 16 16 16 16 16 16 16 16 16 16 16 15 15 15 15 14 14 14 14
19 17 17 17 16 16 16 16 16 16 16 16 16 16 16 16 16 16 16 16 16 16 16 16 16 16 16 16 16 16 16 16 16 16 15 13 14 15 14 14 14 14 14
19 17 16 17 16 16 16 16 16 16 16 16 16 16 16 16 16 16 16 17 17 17 17 17 17 16 16 16 16 16 16 16 16 16 14 13 13 14 14 14 14 14 14
18 17 16 16 16 16 16 16 16 16 16 17 16 16 16 16 16 16 17 17 17 17 17 17 17 17 16 16 16 16 16 16 16 15 14 14 14 14 14 14 14 14 14
17 16 16 16 16 16 16 16 16 16 17 17 16 16 16 16 16 16 17 17 17 17 17 17 17 17 16 16 16 16 16 16 15 15 15 14 14 14 14 14 14 13 13
17 16 16 16 16 16 16 16 16 17 17 17 16 16 16 16 16 16 17 17 17 17 17 17 17 17 17 16 16 16 16 16 15 15 15 14 14 14 14 13 13 13 13
16 16 15 16 16 16 16 16 16 17 17 17 17 16 16 16 16 16 17 17 17 17 17 17 17 17 17 16 16 16 16 16 15 15 14 14 14 14 14 13 13 13 13
16 16 15 15 15 15 16 16 16 17 17 17 17 17 17 17 17 17 17 17 17 17 17 17 17 17 16 16 16 16 16 16 14 14 14 14 14 14 13 13 13 13 13
15 15 15 15 15 15 15 16 16 16 17 17 17 17 17 17 17 17 17 17 16 16 16 16 16 16 16 16 16 16 16 15 14 14 14 14 14 13 13 13 13 13 13
15 15 15 15 15 15 15 15 16 16 16 17 17 17 17 16 16 17 17 17 16 16 16 16 16 16 16 16 15 15 15 14 14 14 14 14 14 13 13 13 13 13 13
15 15 15 15 15 15 15 15 15 15 16 16 16 17 16 16 16 16 17 16 16 16 16 16 16 15 15 15 15 15 14 14 14 13 13 14 13 13 13 13 13 13 13
15 15 15 15 14 14 14 15 15 15 15 15 16 16 16 16 16 16 16 16 16 16 15 15 15 15 14 14 14 14 14 14 13 13 13 14 13 13 13 13 13 13 13
15 15 15 14 14 14 14 14 15 15 15 15 16 16 16 16 16 15 15 15 15 15 15 15 14 14 14 14 14 14 14 14 13 13 13 13 13 13 13 12 12 12 12
15 15 15 15 14 14 14 14 15 15 15 15 15 15 15 15 15 15 15 15 15 14 14 14 13 13 13 13 13 13 13 13 13 13 13 13 13 13 13 12 12 12 12
15 15 15 15 15 15 15 15 15 15 15 15 15 15 15 15 15 15 15 15 14 14 14 14 13 13 13 13 13 13 13 13 13 13 12 12 13 12 12 12 12 12 11
15 15 15 15 15 15 15 15 15 15 15 15 15 15 15 15 15 14 14 14 14 14 14 13 13 13 13 13 13 13 13 13 13 13 12 12 12 12 12 12 12 12 11
16 15 15 15 15 15 15 15 15 15 15 15 15 15 15 15 14 14 14 14 14 14 14 13 13 13 13 13 13 13 13 13 13 13 13 13 12 12 12 12 12 12 11
16 16 16 15 15 15 15 15 15 15 15 15 15 15 15 15 14 14 14 14 14 14 14 14 13 13 13 13 13 13 13 13 13 13 13 13 12 12 12 12 12 12 11
16 16 16 15 15 15 15 15 15 15 15 15 15 15 15 14 14 14 14 14 14 14 14 14 13 13 13 13 13 13 13 13 13 13 13 12 12 12 12 12 12 11 11
16 16 16 16 16 15 15 15 15 15 15 15 15 15 15 15 14 14 14 14 14 14 14 13 13 13 13 13 12 12 12 12 12 12 12 12 12 12 12 12 11 11 11
16 16 16 16 16 16 15 15 15 15 15 15 15 15 15 15 15 14 14 14 14 14 14 13 13 13 12 12 12 11 11 12 12 12 12 12 11 11 11 11 11 11 10
16 17 17 16 16 16 16 15 15 15 15 15 15 15 15 15 14 14 14 14 14 14 13 13 13 12 12 12 11 11 11 12 11 11 11 11 11 10 10 10 10 10 10
16 16 16 16 16 16 16 15 15 15 15 15 15 14 14 14 14 14 14 13 13 13 13 13 13 12 12 11 11 11 10 10 10 10 10 10 10 10 9 9 9 9 9
16 16 16 16 16 15 15 15 15 15 14 14 14 14 14 13 13 13 13 13 13 13 12 12 12 12 11 11 10 10 10 10 9 9 9 9 9 9 9 9 8 8 8
15 15 15 15 15 15 14 14 14 14 14 13 13 13 13 13 12 12 12 12 12 12 11 11 11 11 11 10 10 10 9 9 9 9 8 8 8 8 8 8 8 8 7

GEFSSE_850_meantemp_060.txt.gz
Temperature
18 18 18 17 17 16 16 16 16 16 16 16 16 16 15 15 16 16 16 16 16 16 16 16 16 16 17 17 17 17 16 16 16 15 15 15 15 15 14 14 14 14 14
20 19 18 17 17 16 16 16 16 16 16 16 16 16 15 15 16 16 16 16 16 16 16 16 16 17 17 17 17 17 16 16 15 15 15 15 15 15 14 14 14 14 14
20 19 18 17 17 16 16 16 16 16 16 16 16 16 15 16 16 16 16 16 16 16 16 16 17 17 17 17 17 17 16 15 15 14 14 14 15 15 15 14 14 14 14
20 19 18 17 16 16 16 16 16 16 16 16 16 16 16 16 16 16 16 16 16 16 17 17 17 17 17 17 17 17 16 15 15 14 14 14 15 15 15 14 14 14 14
20 19 18 17 16 16 16 16 16 16 17 16 16 16 16 16 16 17 17 17 17 17 17 17 17 17 17 17 17 17 16 16 15 15 14 15 15 14 14 14 14 14 14
18 18 18 17 16 16 16 16 16 17 17 16 16 16 16 16 17 17 17 17 17 17 17 17 17 17 17 17 17 17 16 16 15 15 15 15 15 15 14 14 14 14 14
17 18 17 17 16 16 16 16 17 17 17 16 16 16 16 17 17 17 17 17 17 17 17 17 17 17 17 17 17 17 16 16 15 15 15 15 15 15 14 14 14 15 15
17 17 17 16 16 16 16 16 17 17 17 17 16 16 17 17 17 17 17 18 17 17 17 17 17 17 17 17 17 17 16 16 15 14 15 15 15 15 15 15 15 15 15
16 17 17 16 16 16 16 16 17 17 17 17 17 17 17 17 17 18 18 18 18 17 17 17 17 17 17 17 17 16 16 16 15 15 15 15 15 15 15 15 15 15 15
16 16 16 16 16 15 15 16 16 17 17 17 17 17 17 17 18 18 18 18 18 18 17 17 17 17 17 17 17 16 16 15 15 14 14 15 15 15 15 15 14 14 15
16 16 16 16 15 15 15 15 16 16 17 17 17 17 17 17 17 18 18 18 18 17 17 17 17 17 17 16 16 16 16 15 14 14 15 15 15 15 15 14 14 14 14
16 16 16 16 15 15 15 15 15 16 16 16 16 16 16 15 16 17 17 17 17 17 17 17 16 16 16 16 16 15 15 15 14 14 14 14 14 14 14 14 14 14 14
16 16 16 16 16 15 15 15 15 15 15 15 15 16 15 15 15 16 17 17 17 17 17 16 16 15 15 15 15 15 15 14 14 14 14 14 14 14 14 14 14 14 13
16 16 16 16 15 15 15 15 15 14 15 14 14 15 15 15 15 15 16 16 16 16 16 16 15 15 14 14 14 14 14 14 14 14 14 14 14 14 13 13 13 13 13
16 16 15 15 15 15 15 15 15 14 15 14 14 15 14 15 15 15 15 15 15 15 15 15 15 14 14 14 14 14 14 14 14 13 13 13 13 13 13 13 13 13 12
16 15 15 15 15 15 15 15 15 14 14 14 14 15 14 14 15 15 14 14 14 14 14 14 14 14 14 14 14 14 13 13 13 13 13 13 13 13 13 13 12 12 12
16 15 15 15 15 15 15 15 15 14 14 14 14 14 14 14 14 14 14 14 14 14 14 14 14 14 14 14 14 13 13 13 13 13 13 13 13 13 13 12 12 12 12
15 15 15 15 15 15 15 15 14 14 14 14 14 14 14 14 14 14 14 14 14 14 14 14 14 13 13 13 13 13 13 13 13 13 13 13 13 12 12 12 12 12 11
15 15 15 15 15 15 15 14 14 14 14 14 14 14 14 14 14 14 14 14 14 14 13 13 13 13 13 13 13 13 13 13 13 13 13 13 12 12 12 12 11 11 11
16 15 15 15 15 15 15 14 14 14 14 14 14 14 14 14 14 14 14 14 14 14 13 13 13 13 13 13 13 13 13 13 13 13 13 13 12 12 12 11 11 11 11
16 16 15 15 15 15 15 15 14 14 14 14 14 14 14 14 14 14 14 14 14 14 13 13 13 13 13 13 12 12 13 13 13 13 13 12 12 12 11 11 11 10 10
16 16 16 15 15 15 15 15 15 15 15 15 15 15 15 14 14 14 14 14 14 14 14 13 13 13 13 12 12 11 11 12 12 12 12 12 12 11 11 10 10 10 10
16 16 16 16 15 15 15 15 15 15 15 15 15 15 15 15 14 14 14 14 14 14 13 13 13 12 12 12 11 11 11 11 12 12 11 11 11 10 10 10 9 9 9
16 16 16 16 16 15 15 15 15 15 15 15 15 15 15 15 14 14 14 14 14 13 13 13 12 12 11 11 11 11 11 10 10 10 10 10 10 10 10 9 9 8 8
16 16 16 16 16 16 15 15 15 15 15 15 14 14 14 14 14 14 14 14 13 13 13 12 12 11 11 11 10 10 10 10 10 10 10 10 10 9 9 9 8 8 7
15 15 15 15 15 15 15 15 15 15 15 14 14 14 14 14 13 13 13 13 13 12 12 12 11 11 10 10 10 10 9 9 9 9 9 9 9 9 8 8 8 7 7